Location: Unspecified
(42.3650°N, 71.1030°W)
Time: 10:58:25
(UTC+00:00)

Altair - All Passes

Search period start: 21 June 2024 00:00
Search period end: 01 July 2024 00:00
Orbit: 1502 x 1682 km, 47.2° (Epoch: 20 June)

Date Brightness Start Highest point End Pass type
(mag) Time Alt. Az. Time Alt. Az. Time Alt. Az.
21 Jun - 05:39:27 10° SSW 05:47:59 45° SE 05:56:44 10° ENE visible
21 Jun - 07:42:56 10° WSW 07:52:14 83° NNW 08:01:54 10° ENE visible
21 Jun - 09:48:20 10° W 09:57:42 66° N 10:07:29 10° E daylight
21 Jun - 11:53:24 10° WNW 12:03:02 86° SSW 12:13:03 10° ESE daylight
21 Jun - 13:58:36 10° WNW 14:07:07 36° SW 14:15:51 10° SSE daylight
22 Jun - 05:14:31 10° SSW 05:22:53 41° SE 05:31:26 10° ENE visible
22 Jun - 07:17:44 10° WSW 07:27:01 86° NNW 07:36:38 10° ENE visible
22 Jun - 09:23:05 10° W 09:32:26 66° N 09:42:09 10° E daylight
22 Jun - 11:28:12 10° WNW 11:37:48 89° SSW 11:47:47 10° ESE daylight
22 Jun - 13:33:17 10° WNW 13:41:58 38° SW 13:50:54 10° SSE daylight
23 Jun - 04:49:36 10° SSW 04:57:47 38° SE 05:06:07 10° ENE visible
23 Jun - 06:52:32 10° WSW 07:01:48 89° NNW 07:11:22 10° ENE visible
23 Jun - 08:57:50 10° W 09:07:08 66° N 09:16:49 10° E daylight
23 Jun - 11:02:59 10° WNW 11:12:34 87° NNE 11:22:31 10° ESE daylight
23 Jun - 13:08:00 10° WNW 13:16:50 42° SW 13:25:56 10° SSE daylight
24 Jun - 04:24:43 10° SSW 04:32:41 35° SE 04:40:48 10° ENE visible
24 Jun - 06:27:21 10° WSW 06:36:35 87° SSE 06:46:07 10° ENE visible
24 Jun - 08:32:35 10° W 08:41:51 66° N 08:51:29 10° E visible
24 Jun - 10:37:47 10° WNW 10:47:19 84° NNE 10:57:14 10° ESE daylight
24 Jun - 12:42:44 10° WNW 12:51:41 45° SW 13:00:56 10° SSE daylight
24 Jun - 14:52:46 10° WSW 14:54:37 11° WSW 14:56:30 10° SW daylight
25 Jun - 03:59:52 10° S 04:07:36 32° SE 04:15:26 10° ENE visible
25 Jun - 06:02:11 10° WSW 06:11:23 84° SSE 06:20:52 10° ENE visible
25 Jun - 08:07:19 10° W 08:16:35 66° N 08:26:11 10° ENE visible
25 Jun - 10:12:34 10° WNW 10:22:04 81° NNE 10:31:57 10° ESE daylight
25 Jun - 12:17:29 10° WNW 12:26:32 48° SW 12:35:54 10° SSE daylight
25 Jun - 14:26:02 10° W 14:29:34 12° WSW 14:33:09 10° SW daylight
26 Jun - 03:35:03 10° S 03:42:32 29° SE 03:50:04 10° ENE visible
26 Jun - 05:37:01 10° SW 05:46:12 80° SSE 05:55:37 10° ENE visible
26 Jun - 07:42:04 10° W 07:51:19 67° N 08:00:52 10° ENE visible
26 Jun - 09:47:21 10° WNW 09:56:49 79° NNE 10:06:39 10° ESE daylight
26 Jun - 11:52:14 10° WNW 12:01:22 52° SW 12:10:50 10° SSE daylight
26 Jun - 13:59:57 10° W 14:04:31 14° WSW 14:09:08 10° SSW daylight
27 Jun - 03:10:17 10° S 03:17:27 26° SE 03:24:40 10° ENE visible
27 Jun - 05:11:53 10° SW 05:21:01 76° SSE 05:30:23 10° ENE visible
27 Jun - 07:16:49 10° W 07:26:02 68° N 07:35:34 10° ENE visible
27 Jun - 09:22:09 10° WNW 09:31:34 76° NNE 09:41:21 10° ESE daylight
27 Jun - 11:27:00 10° WNW 11:36:12 55° SW 11:45:45 10° SE daylight
27 Jun - 13:34:07 10° W 13:39:27 16° SW 13:44:52 10° SSW daylight
28 Jun - 02:45:35 10° S 02:52:24 24° SE 02:59:14 10° E visible
28 Jun - 04:46:45 10° SW 04:55:51 72° SSE 05:05:08 10° ENE visible
28 Jun - 06:51:34 10° W 07:00:46 69° N 07:10:16 10° ENE visible
28 Jun - 08:56:56 10° WNW 09:06:18 74° NNE 09:16:03 10° E daylight
28 Jun - 11:01:47 10° WNW 11:11:02 59° SW 11:20:38 10° SE daylight
28 Jun - 13:08:27 10° W 13:14:22 18° SW 13:20:25 10° SSW daylight
29 Jun - 02:20:56 10° S 02:27:21 22° SE 02:33:46 10° E visible
29 Jun - 04:21:38 10° SW 04:30:41 67° SE 04:39:54 10° ENE visible
29 Jun - 06:26:18 10° W 06:35:31 70° N 06:45:00 10° ENE visible
29 Jun - 08:31:42 10° WNW 08:41:03 72° NNE 08:50:44 10° E visible
29 Jun - 10:36:34 10° WNW 10:45:51 63° SW 10:55:30 10° SE daylight
29 Jun - 12:42:51 10° W 12:49:17 20° SW 12:55:52 10° S daylight
30 Jun - 01:56:21 10° SSE 02:02:18 19° SE 02:08:13 10° E visible
30 Jun - 03:56:33 10° SW 04:05:31 63° SE 04:14:39 10° ENE visible
30 Jun - 06:01:04 10° W 06:10:16 71° NNW 06:19:43 10° ENE visible
30 Jun - 08:06:29 10° WNW 08:15:47 70° NNE 08:25:25 10° E visible
30 Jun - 10:11:21 10° WNW 10:20:41 67° SW 10:30:21 10° SE daylight
30 Jun - 12:17:21 10° W 12:24:12 22° SW 12:31:14 10° S daylight
